{"data":{"norad_id":51132,"intl_designator":"2022-005AE","name":"STARLINK-3393","alt_names":[],"object_type":"PAYLOAD","status":"ACTIVE","operator":null,"country":"US","launch_date":"2022-01-19","launch_site_code":"AFETR","launch_vehicle":null,"mission":null,"orbit_class":"UNKNOWN","rcs_meters":null,"size_class":null,"mass_kg":null,"dimensions":null,"purposes":["comms"],"wikipedia_slug":null,"has_3d_model":false,"image_url":null,"decayed_at":null,"tle_current":{"epoch":"2026-09-20T04:20:35.363904Z","epoch_age_seconds":75758,"freshness":"FRESH","line1":"1 51132U 22005AE  26263.18096486 -.00001020  00000+0 -19065-4 0  9991","line2":"2 51132  53.1607 139.3060 0001184  94.5526 265.5612 15.34371455258171","mean_motion":15.34371455,"eccentricity":0.0001184,"inclination_deg":53.1607,"raan_deg":139.306,"arg_perigee_deg":94.5526,"mean_anomaly_deg":265.5612,"bstar":-1.9065e-5,"rev_number":25817,"period_min":93.849503997714,"perigee_km":461.97811774814,"apogee_km":463.59804880786,"semimajor_km":6840.925083278,"source":"CELESTRAK","updated_at":"2026-09-20T09:00:39.589355Z"}}}